Time,TemperatureF,DewpointF,PressureIn,WindDirection,WindDirectionDegrees,WindSpeedMPH,WindSpeedGustMPH,Humidity,HourlyPrecipIn,Conditions,Clouds,dailyrainin,SoftwareType,DateUTC
2013-08-07 00:01:00,65.0,58.0,30.07,South,180,2.0,5.0,78,0.00,,,0.00,,2013-08-07 04:01:00,
2013-08-07 00:11:00,65.0,58.0,30.07,South,180,2.0,5.0,78,0.00,,,0.00,,2013-08-07 04:11:00,
2013-08-07 00:21:00,65.0,58.0,30.07,South,180,2.0,5.0,78,0.00,,,0.00,,2013-08-07 04:21:00,
2013-08-07 00:33:00,65.0,59.0,30.07,SE,135,2.0,3.0,80,0.00,,,0.00,,2013-08-07 04:33:00,
2013-08-07 00:43:00,65.0,59.0,30.07,SE,135,2.0,3.0,80,0.00,,,0.00,,2013-08-07 04:43:00,
2013-08-07 00:52:00,65.0,59.0,30.07,South,180,0.0,2.0,81,0.00,,,0.00,,2013-08-07 04:52:00,
2013-08-07 01:02:00,65.0,59.0,30.07,SSE,158,1.0,3.0,81,0.00,,,0.00,,2013-08-07 05:02:00,
2013-08-07 01:11:00,65.0,59.0,30.07,SSE,158,1.0,3.0,81,0.00,,,0.00,,2013-08-07 05:11:00,
2013-08-07 01:22:00,65.0,59.0,30.07,South,180,1.0,2.0,81,0.00,,,0.00,,2013-08-07 05:22:00,
2013-08-07 01:32:00,65.0,59.0,30.07,SE,135,1.0,3.0,81,0.00,,,0.00,,2013-08-07 05:32:00,
2013-08-07 01:43:00,65.0,59.0,30.07,SE,135,1.0,3.0,81,0.00,,,0.00,,2013-08-07 05:43:00,
2013-08-07 01:52:00,65.0,59.0,30.06,West,270,1.0,5.0,82,0.00,,,0.00,,2013-08-07 05:52:00,
2013-08-07 02:02:00,65.0,59.0,30.06,ESE,112,1.0,2.0,82,0.00,,,0.00,,2013-08-07 06:02:00,
2013-08-07 02:11:00,65.0,59.0,30.06,ESE,112,1.0,2.0,82,0.00,,,0.00,,2013-08-07 06:11:00,
2013-08-07 02:22:00,65.0,59.0,30.07,WSW,248,1.0,2.0,82,0.00,,,0.00,,2013-08-07 06:22:00,
2013-08-07 02:32:00,65.0,60.0,30.07,NE,45,1.0,2.0,83,0.00,,,0.00,,2013-08-07 06:32:00,
2013-08-07 02:43:00,65.0,60.0,30.07,NE,45,1.0,2.0,83,0.00,,,0.00,,2013-08-07 06:43:00,
2013-08-07 02:52:00,64.0,59.0,30.07,ENE,68,1.0,2.0,83,0.00,,,0.00,,2013-08-07 06:52:00,
2013-08-07 03:01:00,64.0,59.0,30.07,WSW,247,1.0,2.0,83,0.00,,,0.00,,2013-08-07 07:01:00,
2013-08-07 03:12:00,64.0,59.0,30.07,WSW,247,1.0,2.0,83,0.00,,,0.00,,2013-08-07 07:12:00,
2013-08-07 03:22:00,65.0,60.0,30.07,ESE,113,1.0,2.0,84,0.00,,,0.00,,2013-08-07 07:22:00,
2013-08-07 03:33:00,65.0,60.0,30.07,ENE,68,2.0,3.0,84,0.00,,,0.00,,2013-08-07 07:33:00,
2013-08-07 03:43:00,65.0,60.0,30.07,ENE,68,2.0,3.0,84,0.00,,,0.00,,2013-08-07 07:43:00,
2013-08-07 03:53:00,64.0,59.0,30.06,SE,135,2.0,3.0,85,0.00,,,0.00,,2013-08-07 07:53:00,
2013-08-07 04:02:00,64.0,59.0,30.06,East,90,1.0,2.0,85,0.00,,,0.00,,2013-08-07 08:02:00,
2013-08-07 04:11:00,64.0,59.0,30.06,East,90,1.0,2.0,85,0.00,,,0.00,,2013-08-07 08:11:00,
2013-08-07 04:22:00,64.0,59.0,30.06,SE,135,2.0,5.0,85,0.00,,,0.00,,2013-08-07 08:22:00,
2013-08-07 04:32:00,64.0,59.0,30.06,SE,135,2.0,5.0,85,0.00,,,0.00,,2013-08-07 08:32:00,
2013-08-07 04:44:00,64.0,59.0,30.06,SE,135,2.0,5.0,85,0.00,,,0.00,,2013-08-07 08:44:00,
2013-08-07 04:53:00,64.0,60.0,30.06,ESE,112,2.0,3.0,86,0.00,,,0.00,,2013-08-07 08:53:00,
2013-08-07 05:02:00,64.0,60.0,30.06,SE,135,2.0,3.0,86,0.00,,,0.00,,2013-08-07 09:02:00,
2013-08-07 05:12:00,64.0,60.0,30.06,SE,135,2.0,3.0,86,0.00,,,0.00,,2013-08-07 09:12:00,
2013-08-07 05:22:00,64.0,60.0,30.07,SE,135,1.0,3.0,86,0.00,,,0.00,,2013-08-07 09:22:00,
2013-08-07 05:32:00,64.0,60.0,30.07,SE,135,2.0,3.0,86,0.00,,,0.00,,2013-08-07 09:32:00,
2013-08-07 05:43:00,64.0,60.0,30.07,SE,135,2.0,3.0,86,0.00,,,0.00,,2013-08-07 09:43:00,
2013-08-07 05:54:00,64.0,60.0,30.07,SE,135,3.0,6.0,86,0.00,,,0.00,,2013-08-07 09:54:00,
2013-08-07 06:01:00,64.0,60.0,30.06,ESE,112,3.0,6.0,86,0.00,,,0.00,,2013-08-07 10:01:00,
2013-08-07 06:11:00,64.0,60.0,30.06,ESE,112,3.0,6.0,86,0.00,,,0.00,,2013-08-07 10:11:00,
2013-08-07 06:22:00,64.0,60.0,30.06,SE,135,3.0,7.0,87,0.00,,,0.00,,2013-08-07 10:22:00,
2013-08-07 06:32:00,64.0,60.0,30.06,ESE,112,3.0,6.0,87,0.00,,,0.00,,2013-08-07 10:32:00,
2013-08-07 06:43:00,64.0,60.0,30.06,ESE,112,3.0,6.0,87,0.00,,,0.00,,2013-08-07 10:43:00,
2013-08-07 06:52:00,64.0,60.0,30.06,ESE,112,3.0,6.0,87,0.00,,,0.00,,2013-08-07 10:52:00,
2013-08-07 07:01:00,64.0,60.0,30.06,SSE,158,2.0,5.0,87,0.00,,,0.00,,2013-08-07 11:01:00,
2013-08-07 07:11:00,64.0,60.0,30.06,SSE,158,2.0,5.0,87,0.00,,,0.00,,2013-08-07 11:11:00,
2013-08-07 07:22:00,64.0,60.0,30.06,SE,135,2.0,5.0,87,0.00,,,0.00,,2013-08-07 11:22:00,
2013-08-07 07:43:00,64.0,60.0,30.06,ENE,68,3.0,5.0,87,0.00,,,0.00,,2013-08-07 11:43:00,
2013-08-07 07:53:00,65.0,61.0,30.06,WSW,248,2.0,5.0,87,0.00,,,0.00,,2013-08-07 11:53:00,
2013-08-07 08:02:00,65.0,61.0,30.06,SE,135,1.0,3.0,86,0.00,,,0.00,,2013-08-07 12:02:00,
2013-08-07 08:11:00,65.0,61.0,30.06,SE,135,1.0,3.0,86,0.00,,,0.00,,2013-08-07 12:11:00,
2013-08-07 08:22:00,65.0,60.0,30.06,ENE,74,2.0,7.0,85,0.00,,,0.00,,2013-08-07 12:22:00,
2013-08-07 08:33:00,65.0,60.0,30.06,SE,135,3.0,6.0,85,0.00,,,0.00,,2013-08-07 12:33:00,
2013-08-07 08:43:00,65.0,60.0,30.06,SE,135,3.0,6.0,85,0.00,,,0.00,,2013-08-07 12:43:00,
2013-08-07 08:52:00,66.0,62.0,30.05,ESE,112,3.0,5.0,86,0.00,,,0.00,,2013-08-07 12:52:00,
2013-08-07 09:02:00,66.0,62.0,30.06,ESE,112,2.0,6.0,86,0.00,,,0.00,,2013-08-07 13:02:00,
2013-08-07 09:12:00,66.0,62.0,30.06,ESE,112,2.0,6.0,86,0.00,,,0.00,,2013-08-07 13:12:00,
2013-08-07 09:22:00,66.0,61.0,30.06,SE,132,3.0,7.0,85,0.00,,,0.00,,2013-08-07 13:22:00,
2013-08-07 09:32:00,66.0,61.0,30.06,SE,135,2.0,6.0,85,0.00,,,0.00,,2013-08-07 13:32:00,
2013-08-07 09:44:00,66.0,61.0,30.06,SE,135,2.0,6.0,85,0.00,,,0.00,,2013-08-07 13:44:00,
2013-08-07 09:53:00,66.0,61.0,30.06,East,93,5.0,7.0,85,0.00,,,0.00,,2013-08-07 13:53:00,
2013-08-07 10:02:00,66.0,61.0,30.05,SE,135,3.0,7.0,85,0.00,,,0.00,,2013-08-07 14:02:00,
2013-08-07 10:12:00,66.0,61.0,30.05,SE,135,3.0,7.0,85,0.00,,,0.00,,2013-08-07 14:12:00,
2013-08-07 10:22:00,66.0,62.0,30.05,ENE,62,2.0,6.0,86,0.00,,,0.00,,2013-08-07 14:22:00,
2013-08-07 10:33:00,67.0,63.0,30.05,ENE,62,2.0,5.0,86,0.00,,,0.00,,2013-08-07 14:33:00,
2013-08-07 10:43:00,67.0,63.0,30.05,ENE,62,2.0,5.0,86,0.00,,,0.00,,2013-08-07 14:43:00,
2013-08-07 11:02:00,66.0,62.0,30.05,SSE,153,2.0,6.0,87,0.00,,,0.00,,2013-08-07 15:02:00,
2013-08-07 11:13:00,66.0,62.0,30.05,SSE,153,2.0,6.0,87,0.00,,,0.00,,2013-08-07 15:13:00,
2013-08-07 11:22:00,67.0,63.0,30.06,East,93,3.0,6.0,86,0.00,,,0.00,,2013-08-07 15:22:00,
2013-08-07 11:33:00,67.0,63.0,30.06,ENE,68,3.0,5.0,86,0.00,,,0.00,,2013-08-07 15:33:00,
2013-08-07 11:43:00,67.0,63.0,30.06,ENE,68,3.0,5.0,86,0.00,,,0.00,,2013-08-07 15:43:00,
2013-08-07 11:53:00,67.0,63.0,30.06,South,180,2.0,7.0,86,0.00,,,0.00,,2013-08-07 15:53:00,
2013-08-07 12:02:00,67.0,63.0,30.06,NNE,33,2.0,7.0,86,0.00,,,0.00,,2013-08-07 16:02:00,
2013-08-07 12:11:00,67.0,63.0,30.06,NNE,33,2.0,7.0,86,0.00,,,0.00,,2013-08-07 16:11:00,
2013-08-07 12:33:00,69.0,64.0,30.06,WSW,248,3.0,7.0,84,0.00,,,0.00,,2013-08-07 16:33:00,
2013-08-07 12:43:00,69.0,64.0,30.06,WSW,248,3.0,7.0,84,0.00,,,0.00,,2013-08-07 16:43:00,
2013-08-07 12:53:00,69.0,64.0,30.05,SE,135,3.0,9.0,83,0.00,,,0.00,,2013-08-07 16:53:00,
2013-08-07 13:02:00,69.0,64.0,30.05,SSE,158,3.0,9.0,83,0.00,,,0.00,,2013-08-07 17:02:00,
2013-08-07 13:11:00,69.0,64.0,30.05,SSE,158,3.0,9.0,83,0.00,,,0.00,,2013-08-07 17:11:00,
2013-08-07 13:23:00,69.0,64.0,30.05,ESE,113,2.0,5.0,83,0.00,,,0.00,,2013-08-07 17:23:00,
2013-08-07 13:33:00,69.0,63.0,30.05,SSE,158,4.0,9.0,82,0.00,,,0.00,,2013-08-07 17:33:00,
2013-08-07 13:43:00,69.0,63.0,30.05,SSE,158,4.0,9.0,82,0.00,,,0.00,,2013-08-07 17:43:00,
2013-08-07 13:52:00,70.0,64.0,30.05,SE,135,3.0,8.0,82,0.00,,,0.00,,2013-08-07 17:52:00,
2013-08-07 14:02:00,70.0,64.0,30.04,ESE,112,3.0,6.0,82,0.00,,,0.00,,2013-08-07 18:02:00,
2013-08-07 14:11:00,70.0,64.0,30.04,ESE,112,3.0,6.0,82,0.00,,,0.00,,2013-08-07 18:11:00,
2013-08-07 14:22:00,70.0,64.0,30.05,SW,224,2.0,8.0,82,0.00,,,0.00,,2013-08-07 18:22:00,
2013-08-07 14:43:00,70.0,64.0,30.05,SE,135,3.0,6.0,81,0.00,,,0.00,,2013-08-07 18:43:00,
2013-08-07 14:52:00,71.0,65.0,30.04,South,179,2.0,6.0,82,0.00,,,0.00,,2013-08-07 18:52:00,
2013-08-07 15:01:00,71.0,65.0,30.03,SE,134,3.0,8.0,81,0.00,,,0.00,,2013-08-07 19:01:00,
2013-08-07 15:11:00,71.0,65.0,30.03,SE,134,3.0,8.0,81,0.00,,,0.00,,2013-08-07 19:11:00,
2013-08-07 15:22:00,71.0,65.0,30.03,South,180,2.0,8.0,81,0.00,,,0.00,,2013-08-07 19:22:00,
2013-08-07 15:32:00,72.0,66.0,30.03,ESE,112,3.0,6.0,81,0.00,,,0.00,,2013-08-07 19:32:00,
2013-08-07 15:44:00,72.0,66.0,30.03,ESE,112,3.0,6.0,81,0.00,,,0.00,,2013-08-07 19:44:00,
2013-08-07 15:53:00,71.0,65.0,30.03,East,91,3.0,8.0,81,0.00,,,0.00,,2013-08-07 19:53:00,
2013-08-07 16:02:00,71.0,65.0,30.02,SE,136,2.0,6.0,82,0.00,,,0.00,,2013-08-07 20:02:00,
2013-08-07 16:11:00,71.0,65.0,30.02,SE,136,2.0,6.0,82,0.00,,,0.00,,2013-08-07 20:11:00,
2013-08-07 16:22:00,71.0,66.0,30.03,WSW,247,2.0,6.0,83,0.00,,,0.00,,2013-08-07 20:22:00,
2013-08-07 16:33:00,70.0,64.0,30.03,South,179,2.0,5.0,82,0.00,,,0.00,,2013-08-07 20:33:00,
2013-08-07 16:43:00,70.0,64.0,30.03,South,179,2.0,5.0,82,0.00,,,0.00,,2013-08-07 20:43:00,
2013-08-07 16:52:00,70.0,65.0,30.03,ESE,113,2.0,5.0,83,0.00,,,0.00,,2013-08-07 20:52:00,
2013-08-07 17:01:00,70.0,65.0,30.01,ESE,113,2.0,5.0,83,0.00,,,0.00,,2013-08-07 21:01:00,
2013-08-07 17:11:00,70.0,65.0,30.01,ESE,113,2.0,5.0,83,0.00,,,0.00,,2013-08-07 21:11:00,
2013-08-07 17:22:00,70.0,65.0,30.01,WSW,248,2.0,7.0,84,0.00,,,0.00,,2013-08-07 21:22:00,
2013-08-07 17:32:00,71.0,66.0,30.01,SSE,157,2.0,6.0,84,0.00,,,0.00,,2013-08-07 21:32:00,
2013-08-07 17:43:00,71.0,66.0,30.01,SSE,157,2.0,6.0,84,0.00,,,0.00,,2013-08-07 21:43:00,
2013-08-07 17:52:00,70.0,65.0,30.01,ESE,112,2.0,7.0,84,0.00,,,0.00,,2013-08-07 21:52:00,
2013-08-07 18:01:00,70.0,65.0,30.01,SSW,201,2.0,6.0,84,0.00,,,0.00,,2013-08-07 22:01:00,
2013-08-07 18:12:00,70.0,65.0,30.01,SSW,201,2.0,6.0,84,0.00,,,0.00,,2013-08-07 22:12:00,
2013-08-07 18:32:00,70.0,65.0,30.01,East,90,3.0,7.0,84,0.00,,,0.00,,2013-08-07 22:32:00,
2013-08-07 18:43:00,70.0,65.0,30.01,SSE,158,2.0,6.0,84,0.00,,,0.00,,2013-08-07 22:43:00,
2013-08-07 18:52:00,70.0,65.0,29.99,SSE,157,2.0,8.0,85,0.00,,,0.00,,2013-08-07 22:52:00,
2013-08-07 19:01:00,70.0,65.0,30.00,SW,224,2.0,3.0,84,0.00,,,0.00,,2013-08-07 23:01:00,
2013-08-07 19:11:00,70.0,65.0,30.00,SW,224,2.0,3.0,84,0.00,,,0.00,,2013-08-07 23:11:00,
2013-08-07 19:22:00,70.0,65.0,30.04,ENE,69,1.0,2.0,85,0.00,,,0.00,,2013-08-07 23:22:00,
2013-08-07 19:32:00,70.0,65.0,30.04,SW,224,1.0,5.0,85,0.00,,,0.00,,2013-08-07 23:32:00,
2013-08-07 19:43:00,70.0,65.0,30.04,SW,224,1.0,5.0,85,0.00,,,0.00,,2013-08-07 23:43:00,
2013-08-07 19:52:00,70.0,65.0,30.01,South,180,1.0,3.0,85,0.00,,,0.00,,2013-08-07 23:52:00,
2013-08-07 20:01:00,70.0,65.0,30.01,South,181,0.0,3.0,85,0.00,,,0.00,,2013-08-08 00:01:00,
2013-08-07 20:11:00,70.0,65.0,30.01,South,181,0.0,3.0,85,0.00,,,0.00,,2013-08-08 00:11:00,
2013-08-07 20:22:00,70.0,65.0,30.00,SE,136,0.0,2.0,85,0.00,,,0.00,,2013-08-08 00:22:00,
2013-08-07 20:43:00,70.0,66.0,30.00,SSW,203,0.0,1.0,86,0.00,,,0.00,,2013-08-08 00:43:00,
2013-08-07 20:53:00,70.0,66.0,30.01,South,180,0.0,2.0,86,0.00,,,0.00,,2013-08-08 00:53:00,
2013-08-07 21:02:00,69.0,65.0,30.07,SW,225,0.0,1.0,86,0.00,,,0.00,,2013-08-08 01:02:00,
2013-08-07 21:11:00,69.0,65.0,30.07,SW,225,0.0,1.0,86,0.00,,,0.00,,2013-08-08 01:11:00,
2013-08-07 21:22:00,69.0,65.0,30.07,SW,225,0.0,1.0,86,0.00,,,0.00,,2013-08-08 01:22:00,
2013-08-07 21:32:00,69.0,65.0,30.07,South,180,2.0,5.0,87,0.00,,,0.00,,2013-08-08 01:32:00,
2013-08-07 21:43:00,69.0,65.0,30.07,South,179,1.0,3.0,88,0.00,,,0.00,,2013-08-08 01:43:00,
2013-08-07 21:53:00,69.0,65.0,30.07,South,179,1.0,3.0,88,0.00,,,0.00,,2013-08-08 01:53:00,
2013-08-07 22:02:00,69.0,66.0,30.00,SE,134,2.0,3.0,89,0.00,,,0.00,,2013-08-08 02:02:00,
2013-08-07 22:11:00,69.0,66.0,30.00,SE,134,2.0,3.0,89,0.00,,,0.00,,2013-08-08 02:11:00,
2013-08-07 22:22:00,69.0,66.0,30.00,SSE,160,3.0,7.0,89,0.00,,,0.00,,2013-08-08 02:22:00,
2013-08-07 22:32:00,69.0,65.0,30.00,WSW,248,5.0,9.0,87,0.00,,,0.00,,2013-08-08 02:32:00,
2013-08-07 22:43:00,69.0,65.0,30.00,WSW,248,5.0,9.0,87,0.00,,,0.00,,2013-08-08 02:43:00,
2013-08-07 22:52:00,68.0,64.0,30.00,WSW,248,5.0,9.0,86,0.00,,,0.00,,2013-08-08 02:52:00,
2013-08-07 23:02:00,67.0,63.0,30.00,South,180,3.0,8.0,86,0.00,,,0.00,,2013-08-08 03:02:00,
2013-08-07 23:12:00,67.0,63.0,30.00,South,180,3.0,8.0,86,0.00,,,0.00,,2013-08-08 03:12:00,
2013-08-07 23:22:00,67.0,63.0,30.01,WSW,246,2.0,6.0,86,0.00,,,0.00,,2013-08-08 03:22:00,
2013-08-07 23:32:00,66.0,62.0,30.01,South,180,1.0,3.0,86,0.00,,,0.00,,2013-08-08 03:32:00,
2013-08-07 23:43:00,66.0,62.0,30.01,South,180,1.0,3.0,86,0.00,,,0.00,,2013-08-08 03:43:00,
2013-08-07 23:52:00,66.0,62.0,30.02,South,180,0.0,2.0,87,0.00,,,0.00,,2013-08-08 03:52:00,